Starlink 6090

operational
NORAD ID: 56095 Int'l Des: 2023-046 Owner: SPXS Country: US Constellation: starlink
LEOCIRCULAR

关于 Starlink 6090

正在加载描述...

实时位置

正在加载3D地球...

即将过境

高度历史

Altitude vs Time

uPlot chart will show altitude changes over time

两行轨道根数

1 56095U 23046C 25258.35706864 -.00008958 00000-0 -64827-3 0 9993
2 56095 43.0049 31.9810 0001528 287.6679 72.3996 15.02572013135685
Epoch: Sep 15, 2025 • Age: 25 hours

当前状态

高度 570.1 km
速度 7.58 km/s
星下点 -40.26°S, 179.35°E
发射日期 Mar 29, 2023
运行时间 2.4 years
类型 internet

技术详情

分类 Payload
质量 305.00 kg
干质量 290.00 kg
总质量 305.00 kg
长度 0.20 m
直径 2.80 m
跨度 9.00 m
形状 Box + pan
制造商 SPXS
平台类型 Starlink
阶段状态 In Orbit
所有者/国家 SPXS/US

大型星座

Loading constellations...